This is the latest recevied weather packets stored in our database for station/object KC1TEM-13. If no packets are shown the sender has not sent any weather packets the latest 10 day(s).
| Time | Temp. | Humidity | Pressure | Rain* | Wind** | Luminosity | Snow |
|---|---|---|---|---|---|---|---|
| 1788628081 | 20.56° C | 79% | 1011.4 hPa | 0 mm | - | 280 W/m² | - |
| 1788627802 | 20.56° C | 79% | 1011.4 hPa | 0 mm | - | 290 W/m² | - |
| 1788627475 | 20.56° C | 76% | 1011.1 hPa | 0 mm | - | 208 W/m² | - |
| 1788627172 | 21.11° C | 77% | 1011.3 hPa | 0 mm | - | 324 W/m² | - |
| 1788626871 | 20.56° C | 77% | 1011.2 hPa | 0 mm | - | 555 W/m² | - |
| 1788626566 | 20.56° C | 76% | 1011.3 hPa | 0 mm | - | 318 W/m² | - |
| 1788626262 | 20.56° C | 75% | 1011.3 hPa | 0 mm | - | 218 W/m² | - |
| 1788625973 | 20.56° C | 74% | 1011.2 hPa | 0 mm | - | 120 W/m² | - |
| 1788625654 | 20.56° C | 75% | 1011.3 hPa | 0 mm | - | 105 W/m² | - |
| 1788625353 | 21.11° C | 77% | 1011.3 hPa | 0 mm | - | 117 W/m² | - |
| 1788625048 | 21.11° C | 73% | 1011.4 hPa | 0 mm | - | 231 W/m² | - |
| 1788624747 | 21.67° C | 74% | 1011.3 hPa | 0 mm | - | 191 W/m² | - |
| 1788624446 | 21.11° C | 75% | 1011 hPa | 0 mm | - | 250 W/m² | - |
| 1788624140 | 21.11° C | 76% | 1011.3 hPa | 0 mm | - | 331 W/m² | - |
| 1788623840 | 21.11° C | 76% | 1011.3 hPa | 0 mm | - | 307 W/m² | - |
| 1788623539 | 21.11° C | 77% | 1011.4 hPa | 0 mm | - | 272 W/m² | - |
| 1788623233 | 20.56° C | 73% | 1011.3 hPa | 0 mm | - | 289 W/m² | - |
| 1788622929 | 20.56° C | 77% | 1011.3 hPa | 0 mm | - | 217 W/m² | - |
| 1788622625 | 20.56° C | 79% | 1011.2 hPa | 0 mm | - | 147 W/m² | - |
| 1788622320 | 20.56° C | 77% | 1011.1 hPa | 0 mm | - | 125 W/m² | - |
| 1788622015 | 20.56° C | 78% | 1011 hPa | 0 mm | - | 138 W/m² | - |
| 1788621709 | 21.11° C | 78% | 1011.4 hPa | 0 mm | - | 216 W/m² | - |
| 1788621404 | 21.11° C | 76% | 1011.2 hPa | 0 mm | - | 234 W/m² | - |
| 1788621100 | 21.11° C | 76% | 1011.1 hPa | 0 mm | - | 226 W/m² | - |
| 1788620795 | 21.11° C | 75% | 1011.3 hPa | 0 mm | - | 214 W/m² | - |
* Rain latest hour (hover to see other rain measurements)
** Current wind speed in m/s (hover to see current wind gust speed)